Location: Unspecified
(22.6800°N, 112.2000°E)
Time: 08:57:17
(UTC+08:00)

Hubble Space Telescope - Visible Passes

Search period start: 05 March 2024 00:00
Search period end: 15 March 2024 00:00
Orbit: 515 x 519 km, 28.5° (Epoch: 04 March)

Date Brightness Start Highest point End Pass type
(mag) Time Alt. Az. Time Alt. Az. Time Alt. Az.
05 Mar 0.9 18:53:50 10° WNW 18:57:48 62° NNE 19:01:47 10° E visible
05 Mar 2.5 20:34:44 10° W 20:37:07 28° WSW 20:37:07 28° WSW visible
06 Mar 2.1 20:17:22 10° W 20:20:55 30° SSW 20:20:56 30° SSW visible
07 Mar 2.4 20:00:01 10° W 20:03:22 25° SSW 20:04:50 20° S visible
08 Mar 2.8 19:42:43 10° WSW 19:45:47 21° SSW 19:48:45 10° SSE visible
09 Mar 3.1 19:25:29 10° WSW 19:28:12 18° SSW 19:30:55 10° SSE visible
10 Mar 3.3 19:08:21 10° WSW 19:10:35 14° SSW 19:12:49 10° S visible
